Regional Weather Roundup
Issued by NWS

Home | Current Version | Previous Version | Text Only | Print | Product List | Glossary Off
Versions: 1 2 3 4 5 6 7 8 9 10 11 12 13 14 15 16 17 18 19 20 21 22 23 24 25 26 27 28 29 30 31 32 33 34 35 36 37 38 39 40 41 42 43 44 45 46 47 48 49 50

000
ASUS43 KTOP 242259
RWRKS

WEATHER ROUNDUP FOR KANSAS
NATIONAL WEATHER SERVICE GOODLAND KS
600 PM CDT THU APR 24 2014

NOTE:  "FAIR" INDICATES FEW OR NO CLOUDS BELOW 12,000 FEET WITH NO
SIGNIFICANT WEATHER AND/OR OBSTRUCTIONS TO VISIBILITY.

KSZ001>006-013>018-027>032-041>047-250000-
NORTHWEST KANSAS

CITY           SKY/WX    TMP DP  RH WIND       PRES   REMARKS
GOODLAND       MOSUNNY   67  12  12 W14       29.89F
HAYS           SUNNY     70  27  19 N9        29.85S
HILL CITY      MOSUNNY   70  18  13 VRB7G18   29.84F
RUSSELL        SUNNY     70  25  18 NW17      29.83R
$$

KSZ061>065-074>080-084>089-250000-
SOUTHWEST KANSAS

CITY           SKY/WX    TMP DP  RH WIND       PRES   REMARKS
DODGE CITY     SUNNY     70  27  20 N9        29.89R
ELKHART          N/A     68  20  16 NW9         N/A
GARDEN CITY    SUNNY     70  12  10 NW12      29.89S
GREAT BEND     SUNNY     70  28  21 NW13      29.84F
LIBERAL        MOSUNNY   72  19  14 NW15G25   29.93R
$$

KSZ066>073-081>083-090>101-250000-
SOUTHEAST KANSAS

CITY           SKY/WX    TMP DP  RH WIND       PRES   REMARKS
CHANUTE        LGT RAIN  61  50  67 NW16G26   29.79R
COFFEYVILLE    CLOUDY    63  49  60 NW23G31   29.79R
HUTCHINSON     SUNNY     71  31  22 N18G25    29.84R
MEDICINE LODGE   N/A     71  29  21 NW15G26   29.86R
NEWTON         SUNNY     66  36  32 N21G26    29.87S
PARSONS        CLOUDY    61  50  67 NW20G25   29.79R
WICHITA INTL   MOSUNNY   69  34  27 N16       29.84S
WICHITA JABRA  SUNNY     67  37  33 N20G26    29.85R
WICHITA MCCONL SUNNY     67  32  27 N14       29.85S
WINFIELD       SUNNY     66  36  32 N17       29.88R
$$

KSZ007>012-019>026-033>040-048>060-102>105-250000-
NORTHEAST KANSAS

CITY           SKY/WX    TMP DP  RH WIND       PRES   REMARKS
CONCORDIA      SUNNY     70  31  23 N14       29.81R
EMPORIA        CLOUDY    60  44  55 N14G21    29.82R
LAWRENCE       CLOUDY    61  49  64 NW13      29.78R
MANHATTAN      CLOUDY    67  42  40 N9G18     29.81R
OLATHE IND     CLOUDY    58  48  69 NW20G30   29.78R
OLATHE EXE     CLOUDY    58  48  69 NW15G25   29.76R
SALINA         SUNNY     70  36  28 N16       29.82S
TOPEKA BILLARD CLOUDY    62  45  53 NW13G22   29.79R
TOPEKA FORBES  CLOUDY    61  45  55 N16       29.79R
$$



USA.gov is the U.S. government's official web portal to all federal, state and local government web resources and services.